| time (UTC) | temp C | wind direction | speed KPH | gust KPH | rain 1hr cm | rain 24hr cm | rain mn cm | humidity % | barometer mb |
| 20260906103022 | 21 | 235 | 0.0 | 0.0 | 0.00 | 0.00 | 0.00 | 95 | 1010.2 |
| 20260906101530 | 21 | 235 | 0.0 | 0.0 | 0.00 | 0.00 | 0.00 | 95 | 1010.1 |
| 20260906100014 | 21 | 235 | 0.0 | 0.0 | 0.00 | 0.00 | 0.00 | 95 | 1010.2 |
| 20260906094518 | 21 | 235 | 0.0 | 0.0 | 0.00 | 0.00 | 0.00 | 94 | 1010.2 |
| 20260906093034 | 21 | 235 | 0.0 | 0.0 | 0.00 | 0.00 | 0.00 | 94 | 1010.2 |
| 20260906091526 | 21 | 235 | 0.0 | 0.0 | 0.00 | 0.00 | 0.00 | 94 | 1010.4 |
| 20260906090034 | 21 | 235 | 0.0 | 0.0 | 0.00 | 0.00 | 0.00 | 94 | 1010.3 |
| 20260906084517 | 21 | 235 | 0.0 | 0.0 | 0.00 | 0.00 | 0.00 | 94 | 1010.3 |
| 20260906083028 | 21 | 235 | 0.0 | 0.0 | 0.00 | 0.00 | 0.00 | 94 | 1010.2 |
| 20260906081526 | 21 | 235 | 0.0 | 0.0 | 0.00 | 0.00 | 0.00 | 94 | 1010.0 |
| 20260906080013 | 21 | 235 | 0.0 | 0.0 | 0.00 | 0.00 | 0.00 | 93 | 1009.8 |
| 20260906074517 | 21 | 235 | 0.0 | 0.0 | 0.00 | 0.00 | 0.00 | 93 | 1010.0 |
| 20260906073022 | 21 | 235 | 0.0 | 0.0 | 0.00 | 0.00 | 0.00 | 93 | 1010.1 |
| 20260906071526 | 21 | 235 | 0.0 | 0.0 | 0.00 | 0.00 | 0.00 | 93 | 1010.2 |
| 20260906070014 | 21 | 235 | 0.0 | 0.0 | 0.00 | 0.00 | 0.00 | 93 | 1010.3 |
| 20260906064517 | 21 | 235 | 0.0 | 0.0 | 0.00 | 0.00 | 0.00 | 92 | 1010.3 |
| 20260906063036 | 21 | 235 | 0.0 | 0.0 | 0.00 | 0.00 | 0.00 | 92 | 1010.6 |
| 20260906061521 | 21 | 235 | 0.0 | 0.0 | 0.00 | 0.00 | 0.00 | 92 | 1010.9 |
| 20260906060001 | 21 | 235 | 0.0 | 0.0 | 0.00 | 0.00 | 0.00 | 92 | 1010.9 |
| 20260906054506 | 22 | 235 | 0.0 | 0.0 | 0.00 | 0.00 | 0.00 | 92 | 1010.9 |
| 20260906053012 | 22 | 235 | 0.0 | 0.0 | 0.00 | 0.00 | 0.00 | 92 | 1011.1 |
| 20260906051529 | 22 | 235 | 0.0 | 0.0 | 0.00 | 0.00 | 0.00 | 92 | 1011.1 |
| 20260906050003 | 22 | 235 | 0.0 | 0.0 | 0.00 | 0.00 | 0.00 | 92 | 1011.3 |
| 20260906044503 | 22 | 235 | 0.0 | 0.0 | 0.00 | 0.00 | 0.00 | 91 | 1011.2 |
| 20260906043009 | 22 | 235 | 0.0 | 0.0 | 0.00 | 0.00 | 0.00 | 91 | 1011.2 |
| 20260906041513 | 22 | 235 | 0.0 | 0.0 | 0.00 | 0.00 | 0.00 | 90 | 1011.1 |
| 20260906040104 | 22 | 235 | 0.0 | 0.0 | 0.00 | 0.00 | 0.00 | 90 | 1011.0 |
| 20260906034505 | 22 | 235 | 0.0 | 0.0 | 0.00 | 0.00 | 0.00 | 89 | 1011.1 |
| 20260906033011 | 23 | 235 | 0.0 | 0.0 | 0.00 | 0.00 | 0.00 | 89 | 1011.2 |
| 20260906031515 | 23 | 235 | 0.0 | 0.0 | 0.00 | 0.00 | 0.00 | 88 | 1011.2 |
| 20260906030001 | 23 | 235 | 0.0 | 0.0 | 0.00 | 0.00 | 0.00 | 88 | 1011.5 |
| 20260906024505 | 23 | 235 | 0.0 | 0.0 | 0.00 | 0.00 | 0.00 | 87 | 1011.8 |
| 20260906023009 | 23 | 235 | 0.0 | 0.0 | 0.00 | 0.00 | 0.00 | 86 | 1011.9 |
| 20260906021511 | 23 | 235 | 0.0 | 0.0 | 0.00 | 0.00 | 0.00 | 86 | 1012.0 |
| 20260906020107 | 24 | 235 | 0.0 | 0.0 | 0.00 | 0.00 | 0.00 | 85 | 1011.6 |
| 20260906014503 | 24 | 235 | 0.0 | 0.0 | 0.00 | 0.00 | 0.00 | 84 | 1011.4 |
| 20260906013012 | 24 | 235 | 0.0 | 0.0 | 0.00 | 0.00 | 0.00 | 84 | 1011.3 |
| 20260906011513 | 25 | 235 | 0.0 | 0.0 | 0.00 | 0.00 | 0.00 | 82 | 1010.9 |
| 20260906010104 | 25 | 235 | 0.0 | 0.0 | 0.00 | 0.00 | 0.00 | 82 | 1010.9 |
| 20260906004503 | 25 | 235 | 0.0 | 0.0 | 0.00 | 0.00 | 0.00 | 81 | 1011.1 |
| 20260906003009 | 25 | 235 | 0.0 | 0.0 | 0.00 | 0.00 | 0.00 | 80 | 1011.1 |
| 20260906001512 | 25 | 235 | 0.0 | 0.0 | 0.00 | 0.00 | 0.00 | 80 | 1010.6 |
| 20260906000111 | 25 | 235 | 0.0 | 0.0 | 0.00 | 0.00 | 0.00 | 80 | 1010.1 |
| 20260905234507 | 26 | 235 | 0.0 | 0.0 | 0.00 | 0.00 | 0.00 | 79 | 1010.0 |
| 20260905233006 | 26 | 235 | 0.0 | 0.0 | 0.00 | 0.00 | 0.00 | 78 | 1010.0 |
| 20260905231521 | 26 | 235 | 0.0 | 0.0 | 0.00 | 0.00 | 0.00 | 78 | 1010.0 |
| 20260905230103 | 26 | 235 | 0.0 | 0.0 | 0.00 | 0.00 | 0.00 | 77 | 1009.7 |
| 20260905224614 | 26 | 235 | 0.0 | 0.0 | 0.00 | 0.00 | 0.00 | 77 | 1009.7 |
| 20260905223001 | 26 | 235 | 0.0 | 0.0 | 0.00 | 0.00 | 0.00 | 76 | 1009.8 |
| 20260905221507 | 27 | 237 | 0.0 | 0.0 | 0.00 | 0.00 | 0.00 | 73 | 1010.1 |
| 20260905214554 | 30 | 236 | 0.0 | 0.0 | 0.00 | 0.00 | 0.00 | 65 | 1009.7 |
| 20260905213100 | 31 | 236 | 0.0 | 4.8 | 0.00 | 0.00 | 0.00 | 59 | 1010.0 |
| 20260905211502 | 34 | 163 | 0.0 | 3.2 | 0.00 | 0.00 | 0.00 | 54 | 1009.6 |
| 20260905210058 | 35 | 344 | 0.0 | 0.0 | 0.00 | 0.00 | 0.00 | 56 | 1008.7 |
| 20260905204555 | 36 | 344 | 0.0 | 0.0 | 0.00 | 0.00 | 0.00 | 52 | 1008.9 |
| 20260905203108 | 37 | 340 | 0.0 | 6.4 | 0.00 | 0.00 | 0.00 | 48 | 1008.9 |
| 20260905201600 | 37 | 5 | 0.0 | 4.8 | 0.00 | 0.00 | 0.00 | 48 | 1009.0 |
| 20260905200049 | 36 | 5 | 0.0 | 6.4 | 0.00 | 0.00 | 0.00 | 49 | 1009.2 |
| 20260905194552 | 36 | 227 | 0.0 | 3.2 | 0.00 | 0.00 | 0.00 | 48 | 1009.3 |
| 20260905193058 | 36 | 341 | 0.0 | 3.2 | 0.00 | 0.00 | 0.00 | 50 | 1009.3 |
| 20260905191611 | 36 | 344 | 0.0 | 4.8 | 0.00 | 0.00 | 0.00 | 51 | 1009.5 |
| 20260905190050 | 36 | 238 | 0.0 | 1.6 | 0.00 | 0.00 | 0.00 | 52 | 1009.8 |
| 20260905184554 | 35 | 328 | 0.0 | 6.4 | 0.00 | 0.00 | 0.00 | 52 | 1010.0 |
| 20260905183057 | 35 | 174 | 0.0 | 4.8 | 0.00 | 0.00 | 0.00 | 52 | 1010.1 |
| 20260905181606 | 35 | 169 | 0.0 | 4.8 | 0.00 | 0.00 | 0.00 | 52 | 1010.5 |
| 20260905180051 | 35 | 165 | 0.0 | 6.4 | 0.00 | 0.00 | 0.00 | 54 | 1010.6 |
| 20260905174555 | 35 | 5 | 0.0 | 6.4 | 0.00 | 0.00 | 0.00 | 54 | 1010.6 |
| 20260905173058 | 35 | 215 | 0.0 | 4.8 | 0.00 | 0.00 | 0.00 | 54 | 1011.0 |
| 20260905171635 | 35 | 339 | 0.0 | 4.8 | 0.00 | 0.00 | 0.00 | 54 | 1011.1 |
| 20260905170101 | 35 | 222 | 0.0 | 3.2 | 0.00 | 0.00 | 0.00 | 54 | 1011.5 |
| 20260905164552 | 35 | 345 | 0.0 | 4.8 | 0.00 | 0.00 | 0.00 | 54 | 1011.8 |
| 20260905163057 | 35 | 226 | 0.0 | 3.2 | 0.00 | 0.00 | 0.00 | 55 | 1012.0 |
| 20260905161600 | 34 | 17 | 0.0 | 4.8 | 0.00 | 0.00 | 0.00 | 58 | 1012.1 |
| 20260905160045 | 33 | 22 | 0.0 | 1.6 | 0.00 | 0.00 | 0.00 | 62 | 1012.3 |
| 20260905154615 | 33 | 26 | 0.0 | 4.8 | 0.00 | 0.00 | 0.00 | 61 | 1012.5 |
| 20260905153052 | 33 | 340 | 1.6 | 8.0 | 0.00 | 0.00 | 0.00 | 61 | 1012.6 |
| 20260905151557 | 32 | 348 | 0.0 | 6.4 | 0.00 | 0.00 | 0.00 | 63 | 1012.9 |
| 20260905150046 | 32 | 348 | 0.0 | 4.8 | 0.00 | 0.00 | 0.00 | 67 | 1012.9 |
| 20260905144546 | 31 | 360 | 0.0 | 0.0 | 0.00 | 0.00 | 0.00 | 70 | 1012.9 |
| 20260905143049 | 30 | 331 | 0.0 | 4.8 | 0.00 | 0.00 | 0.00 | 74 | 1013.1 |
| 20260905141550 | 29 | 355 | 0.0 | 4.8 | 0.00 | 0.00 | 0.00 | 76 | 1013.1 |
| 20260905140036 | 28 | 355 | 0.0 | 3.2 | 0.00 | 0.00 | 0.00 | 82 | 1013.1 |
| 20260905134539 | 28 | 355 | 0.0 | 0.0 | 0.00 | 0.00 | 0.00 | 84 | 1013.4 |
| 20260905133043 | 26 | 355 | 0.0 | 4.8 | 0.00 | 0.00 | 0.00 | 88 | 1013.4 |
| 20260905131546 | 26 | 215 | 0.0 | 1.6 | 0.00 | 0.00 | 0.00 | 91 | 1013.4 |
| 20260905130034 | 25 | 215 | 0.0 | 1.6 | 0.00 | 0.00 | 0.00 | 94 | 1013.6 |
| 20260905124538 | 23 | 215 | 0.0 | 0.0 | 0.00 | 0.00 | 0.00 | 96 | 1013.6 |
| 20260905123042 | 22 | 215 | 0.0 | 0.0 | 0.00 | 0.00 | 0.00 | 96 | 1013.5 |
| 20260905121547 | 22 | 215 | 0.0 | 0.0 | 0.00 | 0.00 | 0.00 | 96 | 1013.5 |
| 20260905120039 | 21 | 215 | 0.0 | 0.0 | 0.00 | 0.00 | 0.00 | 96 | 1013.3 |
| 20260905114538 | 21 | 215 | 0.0 | 0.0 | 0.00 | 0.00 | 0.00 | 95 | 1013.3 |
| 20260905113044 | 21 | 215 | 0.0 | 0.0 | 0.00 | 0.00 | 0.00 | 95 | 1013.1 |
| 20260905111620 | 21 | 215 | 0.0 | 0.0 | 0.00 | 0.00 | 0.00 | 95 | 1012.9 |
| 20260905110034 | 21 | 215 | 0.0 | 0.0 | 0.00 | 0.00 | 0.00 | 95 | 1012.8 |
| 20260905104604 | 21 | 215 | 0.0 | 0.0 | 0.00 | 0.00 | 0.00 | 95 | 1012.8 |